www.pogodaiklimat.ru

Погода и климат >> Архив погоды >> Хорватия >> Split-Marjan


ПОГОДА в Split-Marjan

  • Прогноз погоды в Split-Marjan
  • Монитор погоды в Split-Marjan
  • Климат города

АРХИВ ПОГОДЫ в Split-Marjan

Время (UTC), дата Ветер
(напр.,м/с)
 
Видим.   Явления Облачность Т
(С)
Тd
(С)
f
(%)
Тe
(С)
Тes
(С)
Комфортность P
(гПа)
Po
(гПа)
Тmin
(С)
Tmax
(С)
R
(мм)
R24
(мм)
S
(см)
13 9.07 С 2 40 км 6/5 1000 м
[Cu Sc Ac trans]
+28.4 +10.2 32 +29 +35 жарко 1012.4 997.9
14 9.07 СВ 5 40 км 6/4 1000 м
[Cu Sc Ci sp]
+28.6 +9.8 31 +29 +32 жарко 1012.2 997.7
15 9.07 СВ 7 45 км 8/5 1230 м
[Cu Sc Ci sp]
+27.4 +9.4 32 +28 +28 жарко 1011.9 997.4
18 9.07 СВ 8 50 км 6/4 1230 м
[Cu Sc Ac lent Ci sp]
+25.5 +10.1 38 +26 +26 жарко 1012.2 997.6 +29.0
20 9.07 СВ 8 20 км 5/4 1000 м
[Cu Sc Ac lent]
+25.0 +8.4 35 +25 +25 комфорт 1013.4 998.7
19 9.07 СВ 8 50 км 6/5 1000 м
[Cu Sc Ac lent]
+24.8 +9.3 37 +25 +25 комфорт 1012.6 997.9
21 9.07 СВ 3 20 км 3/1 1230 м
[Cu Sc Ac trans]
+24.4 +9.4 39 +25 +25 комфорт 1013.6 998.9
00 10.07 С 2 20 км 4/1 1230 м
[Cu hum Ac trans]
+23.0 +9.7 43 +25 +25 комфорт 1013.5 998.7
03 10.07 С 3 25 км 8/5 1230 м
[Cu Sc Ci sp]
+22.5 +11.5 50 +25 +25 комфорт 1012.8 998.0
04 10.07 СВ 3 45 км 8/4 1000 м
[Cu Sc Ac lent Ci sp]
+22.0 +11.9 53 +24 +24 комфорт 1012.7 997.9
05 10.07 СВ 1 45 км 8/3 1500 м
[Cu Sc Ac trans Ci sp]
+23.2 +12.2 50 +26 +27 жарко 1012.7 998.0
06 10.07 СВ 2 50 км 5/3 1500 м
[Sc Ac trans Ci sp]
+24.2 +12.1 47 +26 +29 жарко 1012.5 997.8 +21.9
08 10.07 Ю 2 50 км 3/0
[Ac trans Ci sp]
+25.6 +15.0 52 +28 +38 жарко 1012.7 998.1
07 10.07 ЮЗ 1 50 км 8/5 1500 м
[Sc Ac trans Ci sp]
+24.6 +16.0 59 +28 +31 душно 1012.6 998.0
09 10.07 ЮЗ 2 50 км 1/1 1230 м
[Cu hum Ci sp]
+27.5 +14.4 45 +30 +44 жарко 1012.6 998.1
10 10.07 ЮЗ 3 50 км 1/1 1000 м
[Cu med, cong]
+28.4 +14.6 43 +31 +45 душно 1012.3 997.8
11 10.07 ЮЗ 4 50 км 3/3 1000 м
[Cu med, cong]
+30.0 +13.8 37 +32 +41 жарко 1011.9 997.5
12 10.07 ЮЗ 5 50 км 3/3 1230 м
[Cu Sc]
+30.0 +13.8 37 +32 +38 жарко 1011.7 997.3
14 10.07 ЮЗ 6 50 км 1/1 1000 м
[Cu med, cong]
+29.3 +13.8 39 +31 +35 жарко 1011.1 996.7
13 10.07 З 6 50 км 1/1 1000 м
[Cu med, cong]
+29.8 +14.7 40 +32 +38 душно 1011.5 997.1
15 10.07 ЮЗ 7 50 км 1/1 1230 м
[Cu med, cong]
+28.6 +14.5 42 +31 +33 жарко 1011.0 996.6
18 10.07 З 3 50 км 1/0
[Ci sp]
+26.0 +15.7 53 +29 +29 душно 1011.6 997.0 +30.5
19 10.07 Ю 3 30 км 3/0
[Ac trans Ci sp]
+25.1 +17.7 64 +29 +29 душно 1011.8 997.2
20 10.07 Ю 3 20 км 1/0
[Ac trans]
+24.0 +17.8 68 +28 +28 душно 1012.3 997.6
21 10.07 Ю 1 20 км 1/0
[Ac trans]
+23.9 +17.5 67 +28 +28 душно 1012.6 997.9
00 11.07 ЮВ 2 20 км ясно +22.8 +13.3 55 +26 +26 жарко 1012.1 997.4
03 11.07 ЮВ 2 30 км 3/0
[Ac trans Ci sp]
+22.1 +12.0 53 +24 +24 комфорт 1012.0 997.2
05 11.07 В 2 40 км 5/0
[Ac trans]
+23.0 +13.5 55 +26 +27 жарко 1012.3 997.6
04 11.07 ЮВ 1 40 км 3/0
[Ac trans Ci sp]
+22.0 +14.0 60 +25 +25 комфорт 1012.0 997.2
06 11.07 В 2 40 км 4/0
[Ac trans Ci sp]
+23.4 +13.1 52 +26 +30 жарко 1012.6 997.9 +24.0
07 11.07 ЮВ 1 40 км 5/0
[Ac trans Ci sp]
+25.0 +13.9 50 +27 +35 жарко 1012.3 997.7
08 11.07 ЮВ 2 40 км 3/0
[Ac trans Ci sp]
+27.1 +14.1 45 +29 +39 жарко 1012.1 997.6
09 11.07 ЮЗ 3 40 км 3/0
[Ac trans Ci sp]
+28.1 +14.8 44 +31 +41 душно 1012.5 998.0
11 11.07 ЮЗ 3 40 км 1/1 1000 м
[Cu hum]
+30.1 +16.4 44 +33 +48 душно 1012.1 997.7
10 11.07 Ю 3 40 км 1/0
[Ac trans]
+29.0 +14.8 42 +31 +46 жарко 1012.2 997.8
12 11.07 ЮЗ 4 40 км 1/1 1230 м
[Cu hum]
+30.8 +16.4 42 +34 +45 очень
душно
1011.7 997.4
13 11.07 ЮЗ 4 40 км 1/1 1000 м
[Cu hum]
+30.1 +15.5 41 +33 +42 душно 1011.5 997.1
14 11.07 ЮЗ 4 40 км 3/1 1000 м
[Cu hum Ac trans]
+30.0 +15.9 43 +33 +39 душно 1011.4 997.0
15 11.07 ЮЗ 5 40 км 3/0
[Ac trans]
+29.6 +15.6 43 +32 +36 душно 1011.3 996.9
18 11.07 ЮЗ 2 50 км 1/0
[Ci sp]
+27.6 +14.7 45 +30 +30 жарко 1011.5 997.0 +30.9
20 11.07 ЮВ 2 20 км ясно +26.3 +14.4 48 +29 +29 жарко 1012.6 998.0
19 11.07 ЮВ 1 40 км 1/0
[Ci sp]
+26.8 +14.3 46 +29 +29 жарко 1012.0 997.5
21 11.07 С 1 20 км ясно +25.2 +16.3 58 +29 +29 душно 1012.9 998.3
00 12.07 СВ 2 20 км ясно +24.3 +13.0 49 +26 +26 жарко 1013.2 998.5
03 12.07 В 4 30 км 5/3 1500 м
[Cu Sc Ac cast]
+23.6 +11.5 47 +25 +25 комфорт 1013.0 998.3
04 12.07 СВ 4 50 км 4/3 1500 м
[Sc Ac cast]
+23.7 +11.2 45 +25 +25 комфорт 1013.1 998.4
05 12.07 СВ 4 45 км 1/0
[Ac trans]
+24.0 +11.8 46 +26 +27 жарко 1013.4 998.7
06 12.07 В 3 40 км 1/1 1230 м
[Cu hum Ac trans]
+26.0 +11.8 41 +27 +31 жарко 1013.6 999.0 +23.5
08 12.07 Ю 2 45 км ясно +28.3 +12.5 38 +30 +42 жарко 1014.1 999.6
07 12.07 ЮЗ 2 40 км ясно +27.2 +12.6 40 +29 +37 жарко 1014.0 999.4
09 12.07 ЮЗ 2 45 км 1/1 1230 м
[Cu hum]
+29.8 +12.7 35 +31 +45 жарко 1014.1 999.7
10 12.07 ЮЗ 3 45 км 1/1 1000 м
[Cu hum]
+30.7 +12.7 33 +32 +45 жарко 1014.3 999.9
11 12.07 ЮЗ 4 40 км 1/1 1000 м
[Cu med, cong]
+31.2 +13.2 33 +32 +44 жарко 1014.2 999.8
12 12.07 ЮЗ 3 40 км 1/1 1230 м
[Cu med, cong]
+31.6 +13.5 33 +33 +46 жарко 1014.0 999.7
14 12.07 ЮЗ 3 35 км 1/1 1000 м
[Cu med, cong]
+31.2 +15.8 39 +34 +42 душно 1013.8 999.5
13 12.07 ЮЗ 5 40 км 1/1 1000 м
[Cu med, cong]
+31.3 +15.1 38 +34 +41 душно 1014.0 999.6
15 12.07 ЮЗ 4 30 км 1/1 1230 м
[Cu med, cong]
+30.2 +16.9 45 +34 +38 очень
душно
1013.7 999.3
18 12.07 ЮЗ 2 35 км 1/0
[Ac trans Ci sp]
+27.4 +17.9 56 +32 +32 очень
душно
1013.8 999.3 +31.6
19 12.07 З 2 30 км 1/0
[Ac lent]
+26.4 +17.4 58 +31 +31 душно 1014.0 999.4
20 12.07 З 1 20 км ясно +26.1 +17.2 58 +30 +30 душно 1014.4 999.8
21 12.07 СЗ 2 20 км ясно +25.8 +17.0 58 +30 +30 душно 1014.7 1000.1
00 13.07 С 3 20 км 1/0
[Ci sp]
+23.4 +18.6 74 +30 +30 очень
душно
1015.3 1000.6
03 13.07 Ю 1 30 км 1/0
[Ac lent]
+23.0 +19.4 80 +29 +29 очень
душно
1015.3 1000.6
05 13.07 С 1 20 км ясно +23.8 +19.0 75 +29 +31 душно 1015.4 1000.7
04 13.07 ЮЗ 1 30 км ясно +22.9 +19.5 81 +29 +29 очень
душно
1015.3 1000.6
06 13.07 ЮЗ 1 20 км 1/0
[Ac trans]
+25.0 +20.0 74 +31 +35 очень
душно
1015.4 1000.8 +22.9
07 13.07 ЮЗ 2 20 км ясно +26.0 +19.6 68 +32 +40 очень
душно
1015.6 1001.0
08 13.07 ЮЗ 2 30 км 1/1 1000 м
[Cu hum]
+27.4 +18.9 60 +33 +44 очень
душно
1015.5 1001.0
09 13.07 ЮЗ 4 40 км 1/1 1230 м
[Cu hum]
+28.3 +17.4 52 +32 +42 душно 1015.7 1001.2
11 13.07 ЮЗ 5 40 км 1/1 1000 м
[Cu med, cong]
+30.0 +16.1 43 +33 +42 душно 1015.4 1001.0
10 13.07 ЮЗ 5 40 км 1/1 1000 м
[Cu med, cong]
+29.6 +15.8 43 +32 +41 душно 1015.5 1001.1
12 13.07 ЮЗ 7 40 км 1/1 1230 м
[Cu med, cong]
+30.2 +16.2 43 +33 +38 душно 1014.8 1000.4
13 13.07 З 8 40 км 1/1 1000 м
[Cu med, cong]
+29.8 +18.0 49 +34 +37 очень
душно
1014.6 1000.2
14 13.07 З 7 40 км 1/1 1000 м
[Cu med, cong]
+29.6 +19.0 53 +35 +38 очень
душно
1014.4 1000.0
15 13.07 З 5 40 км 1/1 1230 м
[Cu med, cong]
+29.7 +19.4 54 +35 +39 очень
душно
1014.1 999.7
18 13.07 З 2 40 км 1/1 1230 м
[Cu hum]
+29.0 +16.1 46 +32 +32 душно 1013.9 999.4 +30.6
20 13.07 СЗ 3 20 км ясно +27.2 +16.2 51 +31 +31 душно 1015.3 1000.7
19 13.07 СЗ 3 35 км 1/1 1000 м
[Cu hum]
+28.1 +16.1 48 +31 +31 душно 1014.4 999.9
21 13.07 СВ 2 20 км ясно +27.0 +15.6 50 +30 +30 душно 1015.5 1000.9
00 14.07 СВ 1 20 км ясно +25.1 +15.7 56 +28 +28 жарко 1015.3 1000.6
03 14.07 СВ 2 30 км ясно +24.0 +13.6 52 +26 +26 жарко 1015.4 1000.7
04 14.07 СВ 4 50 км ясно +23.6 +13.1 52 +26 +26 жарко 1015.8 1001.0
05 14.07 СВ 2 50 км ясно +24.2 +13.5 51 +26 +28 жарко 1015.8 1001.1
06 14.07 ЮЗ 1 50 км ясно +25.4 +15.3 54 +28 +33 жарко 1016.2 1001.5 +27.2
08 14.07 ЮЗ 3 50 км ясно +28.0 +15.8 47 +31 +41 душно 1016.2 1001.7
07 14.07 ЮЗ 2 50 км ясно +26.4 +15.3 50 +29 +37 жарко 1016.2 1001.6
09 14.07 ЮЗ 3 50 км ясно +29.4 +15.3 42 +32 +45 душно 1015.9 1001.4
10 14.07 ЮЗ 4 50 км ясно +30.1 +14.5 39 +32 +45 жарко 1015.8 1001.4
11 14.07 ЮЗ 4 50 км 1/0
[Ac trans]
+31.4 +13.9 35 +33 +45 жарко 1015.6 1001.2
12 14.07 ЮЗ 5 50 км 3/0
[Ac trans]
+32.1 +15.2 36 +34 +42 душно 1014.9 1000.6
14 14.07 З 6 50 км 3/3 1000 м
[Sc]
+32.2 +13.1 31 +33 +36 жарко 1013.8 999.5
13 14.07 З 5 50 км 3/3 1000 м
[Sc Ac trans]
+32.2 +13.3 32 +33 +39 жарко 1014.5 1000.2
15 14.07 ЮЗ 6 50 км 3/3 1230 м
[Sc]
+31.1 +15.8 40 +34 +36 душно 1013.9 999.5
18 14.07 С 1 50 км 1/1 1500 м
[Cu hum]
+28.6 +15.2 44 +31 +31 жарко 1013.5 999.0 +32.5
19 14.07 ЮВ 2 40 км ясно +27.4 +15.0 47 +30 +30 жарко 1013.5 999.0
20 14.07 ЮВ 2 20 км ясно +27.0 +16.0 51 +30 +30 душно 1014.2 999.6
21 14.07 ЮВ 2 20 км ясно +26.0 +16.7 57 +30 +30 душно 1014.0 999.4
00 15.07 З 3 20 км ясно +25.4 +15.3 54 +28 +28 жарко 1013.9 999.3
03 15.07 В 4 30 км 5/3 1500 м
[Sc Ac trans]
+24.5 +12.3 47 +26 +26 жарко 1012.8 998.1
05 15.07 В 3 50 км 1/0
[Ac trans]
+25.6 +11.9 42 +27 +28 жарко 1013.1 998.5
04 15.07 СВ 3 50 км 1/0
[Ac trans]
+24.6 +12.2 46 +26 +26 жарко 1013.2 998.5
06 15.07 ЮЗ 1 50 км 1/0
[Ac trans]
+26.8 +14.5 47 +29 +34 жарко 1013.0 998.4 +24.1
07 15.07 Ю 1 50 км 1/0
[Ac trans]
+28.6 +12.9 38 +30 +39 жарко 1013.2 998.7
08 15.07 ЮЗ 2 40 км 1/1 1000 м
[Cu hum Ac trans]
+29.2 +13.7 39 +31 +42 жарко 1013.1 998.7
09 15.07 Ю 3 40 км 5/3 1230 м
[Cu Sc Ac cast Ci sp]
+31.0 +12.7 33 +32 +40 жарко 1013.0 998.6
11 15.07 ЮЗ 5 45 км 5/3 1000 м
[Cu Sc Ac cast Ci fib]
+32.5 +14.4 33 +34 +40 очень
жарко
1012.7 998.4
10 15.07 ЮЗ 2 45 км 6/3 1000 м
[Cu Sc Ac cast Ci fib]
+31.8 +13.6 33 +33 +43 жарко 1012.8 998.5
12 15.07 ЮЗ 4 45 км 8/5 1230 м
[Cu Sc Ac trans]
+32.6 +13.9 32 +34 +38 очень
жарко
1012.5 998.2
13 15.07 З 2 45 км 6/4 1000 м
[Cu Sc Ac trans Ci sp]
+31.4 +14.1 35 +33 +41 жарко 1012.2 997.9
14 15.07 ЮЗ 3 50 км 4/3 1000 м
[Cu Sc Ac trans]
+32.0 +14.7 35 +34 +40 душно 1011.9 997.6
15 15.07 ЮЗ 3 50 км 4/1 1230 м
[Cu med, cong Ac trans Ci fib]
+31.5 +12.3 31 +32 +37 жарко 1011.6 997.3
18 15.07 ЮВ 1 50 км 1/1 1230 м
[Cu Sc]
+28.5 +16.9 49 +32 +32 душно 1011.4 997.0 +32.7
20 15.07 ЮЗ 2 20 км 1/0
[Ac trans]
+26.1 +20.1 70 +32 +32 очень
душно
1012.1 997.6
19 15.07 ЮЗ 3 30 км 1/0
[Ac lent]
+26.8 +19.5 64 +32 +32 очень
душно
1011.5 997.0
21 15.07 ЮЗ 3 20 км ясно +25.5 +20.9 76 +32 +32 очень
душно
1012.1 997.5
00 16.07 ЮЗ 2 20 км 5/3 1230 м
[Cu Sc Ac trans Ci sp]
+24.7 +20.3 77 +31 +31 очень
душно
1012.7 998.1
03 16.07 В 3 30 км 1/1 1230 м
[Cu med, cong Ac cast]
+24.2 +14.8 56 +27 +27 жарко 1011.7 997.0
04 16.07 ЮВ 2 50 км 1/1 1000 м
[Cu med, cong]
+24.1 +14.5 55 +27 +27 жарко 1011.9 997.2
05 16.07 СВ 2 45 км 1/0
[Ac trans]
+25.1 +14.4 51 +28 +29 жарко 1011.7 997.1
06 16.07 ЮЗ 2 40 км 1/0
[Ac trans Ci sp]
+26.1 +17.2 58 +30 +34 душно 1012.0 997.4 +24.0
08 16.07 ЮВ 2 40 км 8/8 1500 м
[Cu Sc Ac trans]
+28.6 +17.9 52 +33 +35 очень
душно
1012.4 998.0
07 16.07 Ю 2 40 км 6/1 1500 м
[Cu hum Ac trans Ci sp]
+27.0 +17.8 57 +31 +37 душно 1012.4 997.9
09 16.07 Ю 2 40 км 1/1 1230 м
[Cu hum]
+30.0 +17.6 47 +34 +48 очень
душно
1012.0 997.6
10 16.07 Ю 2 40 км 1/1 1000 м
[Cu hum]
+30.6 +18.3 48 +35 +52 опасность
солнечного
удара
1012.0 997.7
11 16.07 ЮЗ 3 40 км 1/1 1000 м
[Cu hum Ci sp]
+31.0 +18.6 48 +36 +50 очень
душно
1011.8 997.5

 

Местоположение метеостанции Split-Marjan (Хорватия): широта 43.52 долгота 16.43 высота над уровнем моря 128 м.

В архиве по умолчанию представлена погода в Split-Marjan за последнюю неделю. Архивные данные за месяц целиком и за предыдущие месяцы, начиная с января 2011 года, Вы можете получить, выбрав интересующий диапазон дат из раскрывающегося списка и нажав кнопку "Ввод!".


*Определитесь, кто Вы:
робот инопланетянин человек

Внимание! Время в таблицах - всемирное. Для получения местного времени необходимо прибавить поправку, которая в Split-Marjan равна 1 ч.

Смотрите также архив погоды в соседних городах и на ближайших метеорологических станциях:

Погода в Split-Resnik (Хорватия) (11 км)
Погода в Hvar (Хорватия) (39 км)
Погода в Sibenik (Хорватия) (47 км)
Погода в Makarska (Хорватия) (55 км)
Погода в Livno (Босния и Герцеговина) (59 км)
Погода в Komiza (Хорватия) (59 км)
Погода в Lastovo (Хорватия) (92 км)
Погода в Ploce (Хорватия) (98 км)
Погода в Bugojno (Босния и Герцеговина) (104 км)
Погода в Zadar Zemunik (Хорватия) (108 км)

Пояснения к столбцам:

Ветер - указаны скорость ветра в м/с - средняя за 10 мин, порывы в срок и между сроками (в фигурных скобках) и направление, откуда дует ветер: С - северный, СВ - северо-восточный, В - восточный, ЮВ - юго-восточный, Ю - южный, ЮЗ - юго-западный, З - западный, СЗ - северо-западный.
Видимость - горизонтальная дальность видимости в метрах или километрах. При видимости от 1 до 10 км при отсутствии осадков обычно наблюдается дымка, при ухудшении видимости до 1 км и менее - туман. В сухую погоду видимость может ухудшаться дымом, пылью или мглою.
Явления - указаны атмосферные явления, наблюдавшиеся в срок или в последний час перед сроком; фигурными скобками обозначены явления, наблюдавшиеся между сроками (за 1-3 часа до срока); квадратными скобками обозначены град или гололедные отложения с указанием их диаметра в мм.
Облачность - указаны через наклонную черту общая и нижняя облачность в баллах и высота нижней границы облаков в метрах; квадратными скобками обозначены формы облаков: Ci - перистые, Cs - перисто-слоистые, Cc - перисто-кучевые, Ac - высококучевые, As - высокослоистые, Sc - слоисто-кучевые, Ns - слоисто-дождевые, Cu - кучевые, Cb - кучево-дождевые. Подробнее классификацию облаков см. в Атласе облаков (PDF).
T - Температура воздуха - температура, измеренная на высоте 2 м над землей.
Td - Температура точки росы - температура, при понижении до которой содержащийся в воздухе водяной пар достигнет насыщения.
f - Относительная влажность воздуха - влажноcть воздуха, измеренная на высоте 2 м над землей.
Te - Эффективная температура - температура, которую ощущает одетый по сезону человек в тени. Характеристика душности погоды. При расчете учитывается влияние влажности воздуха и скорости ветра на теплоощущения человека.
Tes - Эффективная температура на солнце - температура, которую ощущает человек, с поправкой на солнечный нагрев. Характеристика знойности погоды. Зависит от высоты солнца над горизонтом, облачности и скорости ветра. Ночью, в пасмурную погоду, а также при ветре 12 м/с и более поправка равна нулю.
P - Атмосферное давление - приведенное к уровню моря атмосферное давление.
Po - Атмосферное давление - измеренное на уровне метеостанции атмосферное давление.
Tmin - Минимальная температура - минимум температуры воздуха на высоте 2 м над землей.
Tmax - Максимальная температура - максимум температуры воздуха на высоте 2 м над землей.
R - Количество осадков - Количество выпавших осадков за период времени, мм. При наведении курсора мыши на число - период времени, за который выпало указанное количество осадков.
R24 - Количество осадков - Количество выпавших осадков за 24 часа, мм.
S - Снежный покров - Высота снежного покрова, см. При наведении курсора мыши на число - состояние снежного покрова и степень покрытия местности в баллах.